ITASAT                  
1 43786U 18099AE  24285.11359343  .00057425  00000+0  37954-2 0  9997
2 43786  97.4952 339.2112 0015323 320.3460  39.6647 15.07061983320010
JY1SAT (JO-97)          
1 43803U 18099AX  24285.14184062  .00079018  00000+0  46322-2 0  9995
2 43803  97.5059 341.4229 0007566 261.3459  98.6914 15.11407401320189
UWE-4                   
1 43880U 18111E   24285.18858748  .00146912  00000+0  78762-2 0  9999
2 43880  97.5979 190.3014 0014300 341.2706  18.7997 15.14211633314950
DUCHIFAT-3              
1 44854U 19089C   24285.52278364  .00082098  00000+0  33495-2 0  9992
2 44854  36.9538  59.6568 0008610   6.7274 353.3590 15.23254085265973
TIANYAN 01              
1 44881U 19093C   24285.48461592  .00007667  00000+0  91611-3 0  9993
2 44881  97.8187   0.0124 0012955 305.3179  54.6823 14.84415988260293
RS-44 & BREEZE-KM R/B   
1 44909U 19096E   24285.52369346  .00000019  00000+0  25136-4 0  9990
2 44909  82.5261  27.4584 0218263 139.0447 222.7281 12.79734765223857
SALSAT                  
1 46495U 20068K   24285.56582806  .00031964  00000+0  16512-2 0  9994
2 46495  97.8307 248.0837 0010459 276.6524  83.3517 15.16182440221922
UVSQ-SAT                
1 47438U 21006AB  24285.42270211  .01282248  73552-3  45373-2 0  9991
2 47438  97.2987 349.5374 0004217 216.8738 143.2245 15.89175972206861
LEDSAT                  
1 49069U 21073D   24285.18072071  .00161689  00000+0  50844-2 0  9991
2 49069  97.4247 355.9625 0016089 229.8153 130.1681 15.32179805174162
XW-3 (CAS-9)            
1 50466U 21131B   24285.52606936  .00004680  00000+0  14964-2 0  9990
2 50466  98.5232  10.0522 0005064 131.7895 228.3727 14.40085935146743
GREENCUBE               
1 53106U 22080B   24281.96479996 -.00000003  00000+0  00000+0 0  9995
2 53106  70.1376 153.3488 0008243  81.8360 278.3235  6.42557544 52511
CAS-5A (FO-118)         
1 54684U 22167C   24285.54135498  .00159609  00000+0  35042-2 0  9990
2 54684  97.6156  74.1307 0006422  94.5724 265.6257 15.43407673102152
STRATOSAT-TK 1 (RS52S)  
1 57167U 23091B   24285.52700844  .00085596  00000+0  40354-2 0  9992
2 57167  97.5965 338.6493 0014583  81.1503 279.1381 15.19033080 71171
UMKA 1 (RS40S)          
1 57172U 23091G   24285.53832269  .00029580  00000+0  18071-2 0  9998
2 57172  97.5984 336.4961 0017733  85.7178 274.6077 15.10095631 71030
CUBESX-HSE 3 (RS42S)    
1 57178U 23091N   24285.55448627  .00045898  00000+0  26131-2 0  9993
2 57178  97.6018 337.3109 0017507  79.2917 281.0283 15.12542767 71071
MONITOR-4 (RS57S)       
1 57182U 23091S   24285.52082908  .00040941  00000+0  23824-2 0  9991
2 57182  97.5999 336.9767 0017933  80.9665 279.3594 15.11778888 71057
MONITOR-2 (RS39S)       
1 57184U 23091U   24285.57115120  .00025655  00000+0  15813-2 0  9995
2 57184  97.6009 336.9441 0014896  75.8303 284.4580 15.09842816 71050
SVYATOBOR 1 (RS60S)     
1 57187U 23091X   24285.51432526  .00039019  00000+0  22438-2 0  9994
2 57187  97.6006 337.6405 0014126  72.8805 287.3971 15.12270665 71099
VIZARD-METEO (RS38S)    
1 57189U 23091Z   24285.53731985  .00044306  00000+0  23963-2 0  9998
2 57189  97.6003 338.3312 0012996  70.3425 289.9208 15.14447143 71143
NANOZOND 1 (RS49S)      
1 57190U 23091AA  24285.55206045  .00074413  00000+0  35294-2 0  9998
2 57190  97.5974 339.3808 0010841  73.3045 286.9378 15.18921365 71221
POLYTECH-UNIVERSE 3 (R*)
1 57191U 23091AB  24285.51197188  .00026158  00000+0  16081-2 0  9998
2 57191  97.5972 336.5140 0020206  91.2396 269.1148 15.09855046 71031
UTMN 2 (RS27S)          
1 57203U 23091AP  24285.50900029  .00045496  00000+0  25150-2 0  9990
2 57203  97.5999 338.0581 0013223  70.5132 289.7526 15.13657622 71122
ARCCUBE 1 (RS25S)       
1 57205U 23091AR  24285.54215599  .00089619  00000+0  39673-2 0  9997
2 57205  97.5932 339.7060 0010594  73.7031 286.5369 15.21227939 71259
KUZGTU 1 (RS47S)        
1 57217U 23091AV  24285.51133031  .00044160  00000+0  25338-2 0  9992
2 57217  97.5985 337.0624 0017418  80.7856 279.5344 15.12274303 71063
HADES-D (SO-121)        
1 58567U 23174CY  24285.18595490  .01081281  00000+0  10730-1 0  9992
2 58567  97.4341   3.0802 0007664 210.1429 149.9389 15.63292276 51648
SONATE-2                
1 59112U 24043Q   24285.58446258  .00053016  00000+0  22151-2 0  9991
2 59112  97.4900  48.5790 0013202 245.9207 114.0649 15.23354504 33495
MESAT1                  
1 60209U 24125G   24285.56322687  .00057918  00000+0  24060-2 0  9994
2 60209  97.3079 135.5902 0022800 276.9319  82.9324 15.23364275 15101
OOV-CUBE (TUBSAT-30)    
1 60240U 24128F   24285.45611352  .00015588  00000+0  13390-2 0  9991
2 60240  61.9969 198.2214 0018611 343.3670  16.6805 14.97512347 14019
